Location: Guilderland
(42.7045°N, 73.9115°W)
Time: 14:38:16
(UTC+00:00)

Cosmos 2227 Rocket - Pass Details

Date: 24 January 2020
Orbit: 840 x 844 km, 71.0° (Epoch: 25 February)

Event Time Altitude Azimuth Distance (km) Brightness Sun altitude
Rises 22:54:26 0° 205° (SSW) 3,383 6.0 -10.5°
Reaches altitude 10° 22:56:52 10° 206° (SSW) 2,451 5.2 -10.9°
Maximum altitude 23:02:30 82° 294° (WNW) 854 2.3 -11.9°
Drops below altitude 10° 23:08:11 10° 23° (NNE) 2,466 4.3 -12.9°
Enters shadow 23:09:58 - 24° (NNE) 3,147 4.8 -13.3°
